Latest Coastal Weather Observations for Kingfish B

IDV60701

Issued at 9:02 am EST Tuesday 18 June 2019 (issued every 10 minutes, with the page automatically refreshed every 10 minutes)

About coastal observations | Map of coastal stations | Coastal observations for VIC | Marine services | Other Formats
Station Details ID: 400139 Name: KINGFISH B (PLATFORM) Lat: -38.60 Lon: 148.19 Height: 31.4 m
Data from the previous 72 hours. | See also: Recent months for locations in Victoria
Date/Time
EST
Wind Sea
Height
m
Swell Vis
km
Cloud Weather Temp
°C
Press
hPa
Rain since
9am
mm
Dir  Spd
kts
Gust
kts
Height
m
Period
s
Dir
18/02:30am NW 11 13 - - - - - - - 14.5 1017.6 -
18/02:20am NW 11 13 - - - - - - - 14.2 1017.7 -
18/02:10am NW 10 12 - - - - - - - 13.8 1017.7 -
18/01:30am NNW 10 12 - - - - - - - 13.8 1018.0 -
18/01:00am NNW 11 13 - - - - - - - 13.7 1018.0 -
18/12:30am N 11 13 - - - - - - - 14.0 1018.1 -
18/12:20am NNE 12 13 - - - - - - - 14.1 1018.1 -
18/12:10am NNE 12 14 - - - - - - - 14.0 1018.3 -
18/12:00am NNE 12 13 - - - - - - - 14.1 1018.5 -
 
Date/Time
EST
Wind Sea
Height
m
Swell Vis
km
Cloud Weather Temp
°C
Press
hPa
Rain since
9am
mm
Dir  Spd
kts
Gust
kts
Height
m
Period
s
Dir
17/11:50pm NNE 12 13 - - - - - - - 14.2 1018.7 -
17/11:40pm NNE 12 13 - - - - - - - 14.3 1018.8 -
17/11:30pm NNE 13 14 - - - - - - - 14.4 1018.9 -
17/11:20pm NNE 12 14 - - - - - - - 14.3 1019.0 -
17/11:10pm NNE 13 14 - - - - - - - 14.4 1019.2 -
17/11:00pm NNE 13 15 - - - - - - - 14.4 1019.3 -
17/10:50pm NNE 14 15 - - - - - - - 14.4 1019.4 -
17/10:40pm NE 14 15 - - - - - - - 14.5 1019.6 -
17/10:30pm NE 14 15 - - - - - - - 14.5 1019.7 -
17/10:20pm NNE 13 15 - - - - - - - 14.5 1019.9 -
17/10:10pm NNE 12 14 - - - - - - - 14.5 1020.0 -
17/10:00pm NE 13 14 - - - - - - - 14.5 1020.2 -
17/09:50pm NNE 12 14 - - - - - - - 14.4 1020.3 -
17/09:40pm NNE 12 14 - - - - - - - 14.5 1020.4 -
17/09:30pm NNE 12 14 - - - - - - - 14.7 1020.4 -
17/09:20pm NNE 12 14 - - - - - - - 14.8 1020.5 -
17/09:10pm NNE 12 13 - - - - - - - 14.4 1020.5 -
17/09:00pm NNE 12 13 - - - - - - - 14.4 1020.6 -
17/07:20pm NE 11 12 - - - - - - - 14.2 1021.1 -
17/04:50pm NNE 4 5 - - - - - - - 13.8 1020.9 -
17/04:40pm NNE 4 5 - - - - - - - 13.8 1020.9 -
17/04:30pm NNE 4 5 - - - - - - - 13.8 1020.9 -
17/04:20pm NNE 3 5 - - - - - - - 13.9 1020.9 -
17/04:10pm N 3 5 - - - - - - - 13.7 1020.9 -
17/04:00pm N 3 6 - - - - - - - 13.7 1020.9 -
17/03:50pm N 3 5 - - - - - - - 13.8 1020.9 -
17/03:40pm N 3 6 - - - - - - - 13.9 1020.9 -
17/03:30pm N 4 7 - - - - - - - 14.1 1021.0 -
17/03:20pm NNW 5 6 - - - - - - - 14.4 1021.0 -
17/03:10pm NNW 5 8 - - - - - - - 14.6 1021.0 -
17/03:00pm NNW 5 8 - - - - - - - 14.8 1021.1 -
17/02:50pm NNW 5 6 - - - - - - - 14.8 1021.1 -
17/02:40pm NNW 5 6 - - - - - - - 14.9 1021.1 -
17/02:30pm NW 5 6 - - - - - - - 15.0 1021.0 -
17/02:00pm NW 5 6 - - - - - - - 15.5 1021.0 -
17/01:30pm NW 6 7 - - - - - - - 14.8 1021.0 -
17/01:20pm NW 7 8 - - - - - - - 14.4 1021.1 -
17/01:10pm NW 7 8 - - - - - - - 14.1 1021.1 -
17/01:00pm NW 8 9 - - - - - - - 14.1 1021.1 -
17/12:50pm NNW 8 9 - - - - - - - 14.0 1021.2 -
17/12:40pm NNW 9 10 - - - - - - - 14.2 1021.3 -
17/12:30pm NW 8 10 - - - - - - - 14.2 1021.4 -
17/12:20pm NW 9 10 - - - - - - - 14.2 1021.6 -
17/12:10pm NW 8 10 - - - - - - - 14.3 1021.7 -
17/12:00pm NW 8 9 - - - - - - - 14.7 1021.8 -
17/11:00am NW 9 10 - - - - - - - 15.7 1022.4 -
17/10:50am NW 9 10 - - - - - - - 15.7 1022.4 -
17/10:00am WNW 9 11 - - - - - - - 15.8 1023.0 -
17/09:10am NW 10 11 - - - - - - - 15.5 1023.3 -
17/08:50am NW 9 10 - - - - - - - 15.3 1023.4 -
17/08:30am NW 9 11 - - - - - - - 15.0 1023.3 -
17/07:40am NW 7 9 - - - - - - - 15.6 1023.0 -
17/05:10am WNW 8 9 - - - - - - - 15.0 1022.6 -
17/05:00am WNW 8 9 - - - - - - - 14.9 1022.5 -
17/04:50am WNW 8 9 - - - - - - - 14.9 1022.6 -
17/04:40am WNW 8 9 - - - - - - - 14.9 1022.5 -
17/04:30am WNW 8 9 - - - - - - - 15.0 1022.4 -
17/04:20am WNW 8 9 - - - - - - - 15.3 1022.4 -
17/04:00am NW 7 9 - - - - - - - 15.1 1022.2 -
17/03:50am WNW 7 8 - - - - - - - 15.1 1022.2 -
17/03:10am NW 6 7 - - - - - - - 14.2 1022.3 -
17/02:30am NW 6 7 - - - - - - - 14.6 1022.5 -
17/02:20am NW 6 8 - - - - - - - 14.7 1022.5 -
17/02:00am NW 6 7 - - - - - - - 15.0 1022.5 -
17/01:50am NW 7 8 - - - - - - - 15.2 1022.5 -
17/01:40am NW 7 8 - - - - - - - 15.2 1022.4 -
17/12:00am WNW 7 8 - - - - - - - 15.5 1022.6 -
 
Date/Time
EST
Wind Sea
Height
m
Swell Vis
km
Cloud Weather Temp
°C
Press
hPa
Rain since
9am
mm
Dir  Spd
kts
Gust
kts
Height
m
Period
s
Dir
16/11:40pm NW 7 8 - - - - - - - 15.4 1022.6 -
16/11:30pm NW 7 8 - - - - - - - 15.2 1022.6 -
16/11:20pm NW 7 9 - - - - - - - 15.3 1022.6 -
16/11:10pm NW 7 8 - - - - - - - 15.4 1022.6 -
16/11:00pm NW 7 8 - - - - - - - 15.5 1022.7 -
16/10:00pm WNW 6 7 - - - - - - - 15.5 1023.0 -
16/09:40pm NW 5 7 - - - - - - - 14.7 1022.9 -
16/09:30pm NNW 5 6 - - - - - - - 14.3 1022.8 -
16/09:20pm NNW 5 6 - - - - - - - 14.0 1022.8 -
16/09:10pm NNW 5 6 - - - - - - - 13.8 1022.8 -
16/09:00pm NNW 5 7 - - - - - - - 13.8 1022.8 -
16/08:50pm N 4 7 - - - - - - - 13.7 1022.8 -
16/08:40pm NNE 5 7 - - - - - - - 13.7 1022.7 -
16/08:30pm NNE 5 7 - - - - - - - 13.7 1022.8 -
16/08:20pm N 3 5 - - - - - - - 13.7 1022.8 -
16/08:10pm NNE 3 5 - - - - - - - 13.7 1022.7 -
16/08:00pm NNE 5 6 - - - - - - - 13.8 1022.7 -
16/07:20pm NE 3 4 - - - - - - - 14.0 1022.8 -
16/07:10pm NE 3 4 - - - - - - - 14.0 1022.9 -
16/07:00pm NNE 3 4 - - - - - - - 14.1 1022.8 -
16/06:50pm NNE 4 6 - - - - - - - 14.2 1022.8 -
16/06:40pm NNE 3 5 - - - - - - - 14.2 1022.8 -
16/06:30pm N 2 4 - - - - - - - 14.3 1022.8 -
16/06:10pm NE 2 4 - - - - - - - 14.4 1022.7 -
16/06:00pm NE 3 3 - - - - - - - 14.5 1022.7 -
16/05:50pm NE 2 3 - - - - - - - 14.5 1022.6 -
16/05:40pm NE 2 4 - - - - - - - 14.7 1022.6 -
16/05:30pm NNE 2 4 - - - - - - - 14.9 1022.5 -
16/05:20pm NNE 3 5 - - - - - - - 15.2 1022.4 -
16/05:10pm N 3 7 - - - - - - - 15.7 1022.3 -
16/05:00pm NNW 3 5 - - - - - - - 16.2 1022.2 -
16/04:50pm NNW 3 4 - - - - - - - 16.0 1022.1 -
16/04:40pm NW 2 3 - - - - - - - 15.8 1022.0 -
16/04:30pm NW 2 3 - - - - - - - 15.6 1022.0 -
16/04:20pm NNW 2 4 - - - - - - - 15.5 1021.9 -
16/04:10pm NNW 3 5 - - - - - - - 15.6 1021.8 -
16/03:50pm NNW 4 5 - - - - - - - 15.7 1021.7 -
16/03:40pm NNW 4 5 - - - - - - - 16.3 1021.7 -
16/03:30pm NNW 3 5 - - - - - - - 16.5 1021.7 -
16/03:20pm NW 3 4 - - - - - - - 16.6 1021.6 -
16/03:10pm NW 3 4 - - - - - - - 16.4 1021.6 -
16/02:50pm NW 3 4 - - - - - - - 15.9 1021.4 -
16/02:40pm NW 3 3 - - - - - - - 15.7 1021.5 -
16/02:30pm WNW 3 4 - - - - - - - 15.4 1021.5 -
16/02:10pm WNW 4 5 - - - - - - - 15.1 1021.6 -
16/02:00pm WNW 4 5 - - - - - - - 15.3 1021.6 -
16/01:40pm W 4 5 - - - - - - - 14.6 1021.5 -
16/01:30pm W 4 5 - - - - - - - 14.6 1021.5 -
16/11:30am WNW 8 9 - - - - - - - 15.4 1022.3 -
16/11:20am WNW 7 9 - - - - - - - 15.9 1022.4 -
16/11:10am WNW 8 9 - - - - - - - 15.9 1022.5 -
16/11:00am WNW 7 9 - - - - - - - 15.9 1022.6 -
16/10:10am W 6 8 - - - - - - - 15.3 1023.1 -
16/09:10am WSW 6 8 - - - - - - - 14.7 1023.4 -
16/08:40am W 7 8 - - - - - - - 14.5 1023.2 -
16/08:30am W 7 8 - - - - - - - 14.4 1023.1 -
16/08:20am W 6 7 - - - - - - - 14.1 1023.0 -
16/07:40am W 6 7 - - - - - - - 13.9 1022.7 -
16/07:30am WSW 6 9 - - - - - - - 13.8 1022.6 -
16/07:20am WSW 6 7 - - - - - - - 13.8 1022.5 -
16/07:10am WSW 6 7 - - - - - - - 13.9 1022.4 -
16/06:40am WSW 4 5 - - - - - - - 14.0 1022.1 -
16/06:00am W 4 5 - - - - - - - 14.0 1021.9 -
16/05:20am SW 3 8 - - - - - - - 14.2 1021.5 -
16/05:10am WSW 3 8 - - - - - - - 14.8 1021.5 -
16/05:00am W 2 3 - - - - - - - 14.9 1021.5 -
16/04:50am WNW 3 4 - - - - - - - 15.1 1021.4 -
16/04:40am W 3 4 - - - - - - - 14.5 1021.4 -
16/04:30am W 3 5 - - - - - - - 14.0 1021.3 -
16/04:20am WSW 4 5 - - - - - - - 13.9 1021.3 -
16/04:10am WSW 4 5 - - - - - - - 14.0 1021.2 -
16/04:00am W 4 5 - - - - - - - 13.9 1021.1 -
16/03:50am WSW 4 5 - - - - - - - 13.8 1021.0 -
16/03:40am WSW 3 5 - - - - - - - 13.8 1020.9 -
16/03:30am SW 4 5 - - - - - - - 13.8 1020.8 -
16/03:20am WSW 4 5 - - - - - - - 13.9 1020.8 -
16/03:10am WSW 4 5 - - - - - - - 13.9 1020.9 -
16/03:00am W 3 4 - - - - - - - 13.9 1020.9 -
16/02:30am W 4 5 - - - - - - - 13.9 1020.9 -
16/02:10am W 3 4 - - - - - - - 13.7 1021.1 -
 
Date/Time
EST
Wind Sea
Height
m
Swell Vis
km
Cloud Weather Temp
°C
Press
hPa
Rain since
9am
mm
Dir  Spd
kts
Gust
kts
Height
m
Period
s
Dir
15/09:20pm SW 1 2 - - - - - - - 13.2 1021.9 -
15/09:10pm CALM 0 1 - - - - - - - 13.1 1021.9 -
15/09:00pm SSW 1 2 - - - - - - - 13.1 1021.9 -
15/08:40pm SSW 2 4 - - - - - - - 13.1 1021.9 -
15/08:30pm SSW 3 4 - - - - - - - 13.1 1021.9 -
15/07:40pm S 5 7 - - - - - - - 13.2 1021.9 -
15/07:30pm S 6 7 - - - - - - - 13.4 1021.8 -
15/07:20pm S 7 8 - - - - - - - 13.4 1021.8 -
15/07:10pm S 8 9 - - - - - - - 13.6 1021.7 -
15/07:00pm S 10 11 - - - - - - - 13.9 1021.7 -
15/06:50pm SW 9 11 - - - - - - - 13.8 1021.6 -
15/06:40pm SW 9 11 - - - - - - - 13.7 1021.5 -
15/06:30pm SW 9 11 - - - - - - - 13.8 1021.5 -
15/06:20pm SW 8 9 - - - - - - - 13.8 1021.4 -
15/06:10pm SW 9 10 - - - - - - - 13.8 1021.4 -
15/06:00pm SW 9 10 - - - - - - - 13.7 1021.3 -
15/05:20pm SSW 10 11 - - - - - - - 13.8 1021.1 -
15/05:10pm SSW 9 11 - - - - - - - 13.7 1020.9 -
15/05:00pm SSW 8 9 - - - - - - - 13.7 1020.8 -
15/04:50pm SSW 7 9 - - - - - - - 13.7 1020.7 -
15/04:30pm SSW 9 10 - - - - - - - 13.7 1020.4 -
15/04:10pm SSW 8 10 - - - - - - - 14.0 1020.3 -
15/04:00pm SW 8 10 - - - - - - - 14.1 1020.2 -
15/03:40pm SW 9 10 - - - - - - - 14.4 1020.0 -
15/03:30pm SW 8 10 - - - - - - - 14.4 1019.9 -
15/03:20pm SW 10 11 - - - - - - - 14.5 1019.9 -
15/03:10pm SW 11 12 - - - - - - - 14.6 1019.8 -
15/03:00pm WSW 11 12 - - - - - - - 14.7 1019.7 -
15/02:50pm WSW 11 12 - - - - - - - 14.7 1019.7 -
15/02:40pm WSW 12 14 - - - - - - - 14.8 1019.7 -
15/02:30pm WSW 12 14 - - - - - - - 14.9 1019.6 -
15/02:20pm WSW 12 15 - - - - - - - 15.0 1019.6 -
15/02:10pm WSW 12 14 - - - - - - - 15.0 1019.6 -
15/02:00pm WSW 12 14 - - - - - - - 14.9 1019.6 -
15/01:50pm WSW 12 14 - - - - - - - 14.9 1019.6 -
15/01:40pm WSW 12 14 - - - - - - - 14.9 1019.6 -
15/01:30pm WSW 12 14 - - - - - - - 14.8 1019.5 -
15/01:20pm WSW 13 14 - - - - - - - 14.9 1019.4 -
15/01:10pm WSW 13 15 - - - - - - - 14.8 1019.3 -
15/01:00pm WSW 12 14 - - - - - - - 14.9 1019.4 -
15/12:50pm WSW 12 15 - - - - - - - 15.0 1019.4 -
15/12:40pm WSW 12 14 - - - - - - - 15.0 1019.5 -
15/12:30pm WSW 12 15 - - - - - - - 14.9 1019.5 -
15/12:20pm WSW 13 14 - - - - - - - 15.0 1019.6 -
15/12:10pm WSW 12 14 - - - - - - - 15.0 1019.7 -
15/12:00pm WSW 13 15 - - - - - - - 15.0 1019.8 -
15/11:50am WSW 13 14 - - - - - - - 15.2 1019.9 -
15/11:40am WSW 12 14 - - - - - - - 15.4 1019.9 -
15/11:30am WSW 13 16 - - - - - - - 15.5 1019.9 -
15/11:20am WSW 13 14 - - - - - - - 15.6 1020.0 -
15/11:00am WSW 14 17 - - - - - - - 15.7 1020.1 -
15/10:50am WSW 14 16 - - - - - - - 15.7 1020.2 -
15/10:40am WSW 15 16 - - - - - - - 15.8 1020.3 -
15/10:30am WSW 14 16 - - - - - - - 15.6 1020.3 -
15/10:20am WSW 14 16 - - - - - - - 15.6 1020.4 -
15/10:10am WSW 15 17 - - - - - - - 15.5 1020.5 -
15/09:40am WSW 15 18 - - - - - - - 15.4 1020.7 -
15/09:30am WSW 15 17 - - - - - - - 15.3 1020.6 -
15/09:20am WSW 15 18 - - - - - - - 14.9 1020.5 -
15/09:10am W 17 19 - - - - - - - 14.7 1020.4 -

Other formats

Comma delimited format used in spreadsheet applications
http://www.bom.gov.au/fwo/IDV60701/IDV60701.55039.axf

JavaScript Object Notation format (JSON) in row-major order
http://www.bom.gov.au/fwo/IDV60701/IDV60701.55039.json

Data quality

Most of these data are generated automatically and are frequently updated. Quality checks on data are not normally performed. It is possible for incorrect values to appear. Refer to information at About Latest Weather Observations and please check the disclaimer before using these data.